This is the latest recevied weather packets stored in our database for station/object VE3TEJ. If no packets are shown the sender has not sent any weather packets the latest 10 day(s).
| Time | Temp. | Humidity | Pressure | Rain* | Wind** | Luminosity | Snow |
|---|---|---|---|---|---|---|---|
| 1778174557 | 11.11° C | 51% | 1009.9 hPa | 0 mm | - | - | - |
| 1778174259 | 11.11° C | 45% | 1009.8 hPa | 0 mm | - | - | - |
| 1778173930 | 11.11° C | 46% | 1009.9 hPa | 0 mm | - | - | - |
| 1778173658 | 10.56° C | 46% | 1010 hPa | 0 mm | - | - | - |
| 1778173358 | 10.56° C | 48% | 1010 hPa | 0 mm | - | - | - |
| 1778173059 | 11.11° C | 47% | 1010 hPa | 0 mm | - | - | - |
| 1778172759 | 11.67° C | 48% | 1009.9 hPa | 0 mm | - | - | - |
| 1778172458 | 11.11° C | 49% | 1010 hPa | 0 mm | - | - | - |
| 1778172158 | 10.56° C | 48% | 1010.2 hPa | 0 mm | - | - | - |
| 1778171857 | 10.56° C | 49% | 1010.2 hPa | 0 mm | - | - | - |
| 1778171557 | 10.56° C | 48% | 1010.3 hPa | 0 mm | - | - | - |
| 1778171230 | 10.56° C | 50% | 1010.2 hPa | 0 mm | - | - | - |
| 1778170958 | 10.56° C | 49% | 1010.3 hPa | 0 mm | - | - | - |
| 1778170658 | 11.67° C | 47% | 1010.3 hPa | 0 mm | - | - | - |
| 1778170357 | 11.67° C | 46% | 1010.4 hPa | 0 mm | - | - | - |
| 1778170059 | 11.11° C | 47% | 1010.5 hPa | 0 mm | - | - | - |
| 1778169759 | 10.56° C | 47% | 1010.3 hPa | 0 mm | - | - | - |
| 1778169457 | 11.11° C | 47% | 1010.5 hPa | 0 mm | - | - | - |
| 1778169159 | 11.11° C | 48% | 1010.5 hPa | 0 mm | - | - | - |
| 1778168859 | 11.67° C | 48% | 1010.6 hPa | 0 mm | - | - | - |
| 1778168557 | 11.67° C | 49% | 1010.5 hPa | 0 mm | - | - | - |
| 1778168259 | 11.67° C | 48% | 1010.5 hPa | 0 mm | - | - | - |
| 1778167958 | 12.22° C | 48% | 1010.6 hPa | 0 mm | - | - | - |
| 1778167658 | 13.33° C | 46% | 1010.4 hPa | 0 mm | - | - | - |
| 1778167357 | 12.22° C | 47% | 1010.4 hPa | 0 mm | - | - | - |
* Rain latest hour (hover to see other rain measurements)
** Current wind speed in m/s (hover to see current wind gust speed)